This is the latest recevied weather packets stored in our database for station/object OE3MHU-13. If no packets are shown the sender has not sent any weather packets the latest 10 day(s).
| Time | Temp. | Humidity | Pressure | Rain* | Wind** | Luminosity | Snow |
|---|---|---|---|---|---|---|---|
| 1777865064 | 13.33° C | 67% | 1015.7 hPa | 0 mm | - | - | - |
| 1777864758 | 13.33° C | 66% | 1015.8 hPa | 0 mm | - | - | - |
| 1777864452 | 13.89° C | 65% | 1015.8 hPa | 0 mm | - | - | - |
| 1777863840 | 14.44° C | 64% | 1015.8 hPa | 0 mm | - | - | - |
| 1777862922 | 14.44° C | 63% | 1015.8 hPa | 0 mm | - | - | - |
| 1777847514 | 18.33° C | 48% | 1015.8 hPa | 0.25 mm | - | - | - |
| 1777847214 | 18.33° C | 48% | 1015.9 hPa | 0.25 mm | - | - | - |
| 1777846913 | 18.33° C | 48% | 1015.9 hPa | 0.25 mm | - | - | - |
| 1777846014 | 18.33° C | 47% | 1016 hPa | 0.25 mm | - | - | - |
| 1777845713 | 18.33° C | 47% | 1016 hPa | 0.25 mm | - | - | - |
| 1777845406 | 18.33° C | 47% | 1016 hPa | 0.25 mm | - | - | - |
| 1777844489 | 18.89° C | 46% | 1016.2 hPa | 0.25 mm | - | - | - |
| 1777844182 | 18.89° C | 46% | 1016.2 hPa | 0 mm | - | - | - |
| 1777843570 | 18.89° C | 46% | 1016.2 hPa | 0 mm | - | - | - |
| 1777843264 | 19.44° C | 46% | 1016.3 hPa | 0 mm | - | - | - |
| 1777842958 | 19.44° C | 45% | 1016.2 hPa | 0 mm | - | - | - |
| 1777842766 | 19.44° C | 46% | 1016.4 hPa | 0 mm | - | - | - |
| 1777842758 | 19.44° C | 45% | 1016.3 hPa | 0 mm | - | - | - |
| 1777842041 | 19.44° C | 46% | 1016.4 hPa | 0 mm | - | - | - |
| 1777841734 | 19.44° C | 46% | 1016.3 hPa | 0 mm | - | - | - |
| 1777841428 | 19.44° C | 46% | 1016.4 hPa | 0 mm | - | - | - |
| 1777839901 | 20° C | 45% | 1016.4 hPa | 0 mm | - | - | - |
| 1777839287 | 20° C | 45% | 1016.5 hPa | 0 mm | - | - | - |
| 1777838674 | 20° C | 45% | 1016.4 hPa | 0 mm | - | - | - |
| 1777838063 | 20° C | 44% | 1016.5 hPa | 0 mm | - | - | - |
* Rain latest hour (hover to see other rain measurements)
** Current wind speed in m/s (hover to see current wind gust speed)